Regional Weather Roundup
Issued by NWS

Home | Current Version | Previous Version | Graphics & Text | Print | Product List | Glossary On
Versions: 1 2 3 4 5 6 7 8 9 10 11 12 13 14 15 16 17 18 19 20 21 22 23 24 25 26 27 28 29 30 31 32 33 34 35 36 37 38 39 40 41 42 43 44 45 46 47 48 49 50
000
ASUS43 KIND 060909
RWRIN

WEATHER ROUNDUP FOR INDIANA
NATIONAL WEATHER SERVICE INDIANAPOLIS IN
500 AM EDT WED MAY 06 2015

NOTE: "FAIR" INDICATES FEW OR NO CLOUDS BELOW 12,000 FEET WITH NO
SIGNIFICANT WEATHER AND/OR OBSTRUCTIONS TO VISIBILITY.

* - STATION DOES NOT REPORT WEATHER SUCH AS PRECIPITATION OR FOG.

+ - STATION NOT QUALITY CONTROLLED BY THE NATIONAL WEATHER SERVICE.
    USE DATA WITH CAUTION...ESPECIALLY DEWPOINT AND RELATIVE
    HUMIDITY OBSERVATIONS.

INZ001>003-010>013-019-020-061000-
NORTHWEST INDIANA

CITY           SKY/WX    TMP DP  RH WIND       PRES   REMARKS
GARY /AIRPORT/ FOG       49  47  90 CALM      30.19S VSB 1/4
KNOX *+        MOCLDY    54  50  87 E5        30.18R
LA PORTE +     CLOUDY    58  58 100 E7        30.19S FOG
MICHIGAN CITY+ CLOUDY    55  55 100 E3        30.19S FOG
MONTICELLO +   CLOUDY    57  57 100 E6        30.16F FOG
VALPARAISO     CLOUDY    57  56  96 E5        30.18S FOG

$$

LMZ046-743>745-061000-
SOUTHERN LAKE MICHIGAN

STATION/POSITION TIME  TEMP    WIND        PRES    WAVE
                       AIR SEA DIR/SP/G            HT
                 (UTC) (F)     (DEG/KT/KT) (MB)    (FT)
BURNS HARBOR     0900   51      40/  6/  7 1022.4S
MICHIGAN CITY    0900   57     100/  6/  8   N/A
5NW MICH CITY    0900   51 51   50/  4/  6   N/A     1

$$

INZ004-005-014>016-021>024-061000-
NORTH CENTRAL INDIANA

CITY           SKY/WX    TMP DP  RH WIND       PRES   REMARKS
GOSHEN         CLOUDY    54  52  93 E7        30.20S FOG
LOGANSPORT +   CLEAR     54  52  94 E8        30.18F FOG
ROCHESTER +    CLOUDY    55  55 100 E9        30.18F FOG
SOUTH BEND     CLOUDY    55  54  96 MISG      30.20S FOG
WARSAW +       CLOUDY    52  52 100 SE9       30.20S FOG

$$

INZ006>009-017-018-025>027-061000-
NORTHEAST INDIANA

CITY           SKY/WX    TMP DP  RH WIND       PRES   REMARKS
ANGOLA *+      CLOUDY    52  39  62 E5        30.21S VSB 1/4
AUBURN +       FOG       52  50  93 E5        30.22S VSB 1/2
FORT WAYNE     FOG       52  52 100 E8        30.21F VSB 1/2
HUNTINGTON +   FOG       52  51  97 E7        30.20S VSB 1/2

$$

INZ028-029-035-036-043>045-051>053-061000-
WEST CENTRAL INDIANA

CITY           SKY/WX    TMP DP  RH WIND       PRES   REMARKS
CRAWFORDSVL +  CLEAR     56  49  75 CALM      30.16F
GREENCASTLE +  CLEAR     59  48  67 CALM      30.18S
LAFAYETTE      CLEAR     57  57 100 CALM      30.15F FOG
TERRE HAUTE    CLEAR     57  53  86 CALM      30.16F

$$

INZ030>032-037>040-046>048-054>057-064-065-061000-
CENTRAL INDIANA

CITY           SKY/WX    TMP DP  RH WIND       PRES   REMARKS
CP ATTERBURY + PTCLDY    54  52  94 CALM      30.18F
FISHERS *+     CLEAR     55  55 100 CALM      30.18S
FRANKFORT +    CLEAR     57  57 100 E5        30.18F FOG
GREENWOOD *+   CLEAR     61  54  77 CALM      30.19S
INDIANAPOLIS   MOCLDY    65  52  62 CALM      30.16S
-EAGLE CREEK   PTCLDY    58  54  86 CALM      30.17S
KOKOMO *+      CLEAR     54  52  94 SE8       30.18S
MARION +       CLEAR     52  51  95 E7        30.20S FOG
MT COMFORT *+  CLEAR     57  57 100 CALM      30.19S
SHELBYVILLE    CLEAR     58  52  80 SE5       30.18S
ZIONSVILLE +   CLEAR     60  54  82 E3        30.18F

$$

INZ033-034-041-042-049-050-058-059-061000-
EAST CENTRAL INDIANA

CITY           SKY/WX    TMP DP  RH WIND       PRES   REMARKS
MUNCIE         PTCLDY    55  53  93 E5        30.19F FOG

$$

INZ060-061-067>069-081>083-085>088-061000-
SOUTHWEST INDIANA

CITY           SKY/WX    TMP DP  RH WIND       PRES   REMARKS
EVANSVILLE     CLEAR     59  55  87 CALM      30.17S
HUNTINGBURG *+ CLEAR     59  52  77 SE5       30.18S
WASHINGTON +   CLEAR     59  51  72 S3        30.16S

$$

INZ062-063-066-070>080-084-089>092-061000-
SOUTH CENTRAL AND SOUTHEAST INDIANA

CITY           SKY/WX    TMP DP  RH WIND       PRES   REMARKS
BLOOMINGTON    CLEAR     56  53  90 CALM      30.18S
MADISON *+     CLEAR     55  52  88 CALM      30.21F
NORTH VERNON + CLEAR     55  55 100 CALM      30.20S
SEYMOUR +      CLEAR     55  54  94 CALM      30.18F

$$




USA.gov is the U.S. government's official web portal to all federal, state and local government web resources and services.